Fort Wainwright, AK (99703)

4:05 AM AKDT on April 25, 2018 (GMT -0800)
Ladd Army Air Field | | Change Station

Elev 453 ft 64.84 °N, 147.62 °W | Updated 7 minutes ago

Overcast
Overcast
35 °F
Feels Like 28 °F
N
8
Wind Variable Wind from South

Today
High -- | Low -- °F
--% Chance of Precip.
Yesterday
High -- | Low -- °F
Precip. -- in
Pressure 29.72 in
Visibility 9.0 miles
Clouds Scattered Clouds 2700 ft
Mostly Cloudy 3600 ft
Overcast 4800 ft
Windchill 28 °F
Dew Point 33 °F
Humidity 94%
Rainfall 0.00 in
Snow Depth Not available.
5:38 AM 10:00 PM
Waxing Gibbous, 78% visible
METAR PAFB 251158Z AUTO 18007KT 9SM SCT027 BKN036 OVC048 02/01 A2970 RMK AO2 UPE31 SLP063 P0000 60000 T00150006 10080 20015 52056
Pressure 29.72 in
Visibility 9.0 miles
Clouds Scattered Clouds 2700 ft
Mostly Cloudy 3600 ft
Overcast 4800 ft
Windchill 28 °F
Dew Point 33 °F
Humidity 94%
Rainfall 0.00 in
Snow Depth Not available.
5:38 AM 10:00 PM
Waxing Gibbous, 78% visible
METAR PAFB 251158Z AUTO 18007KT 9SM SCT027 BKN036 OVC048 02/01 A2970 RMK AO2 UPE31 SLP063 P0000 60000 T00150006 10080 20015 52056

Get Severe Weather Alerts

Thanks for signing up!

Be on the lookout for a verification email in your inbox.

You'll start receiving the daily forecast at 6 AM.

×

10-Day Weather Forecast

Almanac

Astronomy

Apr. 25, 2018 Rise Set
Actual Time
Civil Twilight
Nautical Twilight
Astronomical Twilight
Moon
Length of Visible Light
Length of Day
Tomorrow will be .
, % of the Moon is Illuminated

Today's Extremes

State Highs State Lows

Community

WunderPhotos

Category 6

Welcome to Category 6. This is the collective home for Weather Underground's featured writeups by Dr. Jeff Masters (right), Bob Henson (left), Chris Burt, and other regular contributors.

Nearby

Air Quality

  Air Quality AQ Index Pollutant
Not available.

Snow Depth

Station Depth Elevation

Earthquake Activity

City Distance Mag. Time & Date
Minimum magnitude displayed is 2.5.

Coastal Water Temperatures

Place Temperature

Stations

Nearby Weather Stations

Station Location Temp. Windchill Dew Point Humidity Wind Precip. Elev Updated Type
                   

Watches & Warnings

There are currently no watches in effect.